Total_Precipitation_Accumulation
0.01 0.01 0.02 0.02 0.02 0.02 0.02 0.03 0.04 0.05 0.05 0.07 0.12 0.21 0.32 0.41 0.48 0.63 0.79 0.86 0.88 1.06 1.47 1.87 2.05 2.17 2.50 2.73 2.91 2.89 3.04 3.35 3.59 3.97 3.96 4.16 4.59 4.96 5.11 5.23 5.20 5.12 5.04 5.03
0.02 0.02 0.02 0.02 0.02 0.02 0.01 0.02 0.04 0.06 0.08 0.10 0.17 0.28 0.37 0.46 0.53 0.67 0.85 0.91 0.85 1.05 1.36 1.80 2.03 2.37 2.61 2.75 3.00 3.13 3.24 3.63 4.13 4.69 5.21 5.60 5.95 5.96 6.09 6.05 5.92 5.62 5.44 5.30
0.02 0.02 0.01 0.01 0.01 0.01 0.02 0.03 0.05 0.06 0.10 0.14 0.20 0.38 0.50 0.60 0.68 0.76 0.85 0.91 0.98 1.17 1.47 1.68 1.93 2.25 2.53 2.75 3.02 3.20 3.49 4.08 4.90 5.42 5.89 6.46 6.79 6.52 6.26 5.97 5.89 5.79 5.72 5.60
0.01 0.01 0.01 0.01 0.01 0.02 0.04 0.04 0.05 0.06 0.10 0.20 0.23 0.46 0.73 0.83 0.95 0.89 0.97 1.11 1.25 1.36 1.49 1.68 1.91 2.19 2.49 2.83 2.97 3.16 3.71 4.41 5.07 5.62 6.24 6.84 7.14 7.19 6.99 6.42 5.93 5.50 5.21 4.99
0.01 0.01 0.02 0.02 0.02 0.02 0.04 0.04 0.04 0.07 0.10 0.18 0.22 0.44 0.88 1.11 1.24 1.20 1.25 1.30 1.33 1.35 1.45 1.61 1.82 2.03 2.17 2.52 2.99 3.31 3.86 4.52 5.17 5.90 6.63 7.07 7.31 7.33 6.97 6.17 5.38 4.85 4.53 4.24
0.01 0.01 0.02 0.02 0.02 0.02 0.02 0.04 0.06 0.11 0.15 0.25 0.24 0.42 1.00 1.37 1.59 1.58 1.46 1.47 1.45 1.37 1.34 1.38 1.59 1.75 2.04 2.39 2.79 3.27 3.58 4.17 4.85 5.45 6.02 6.20 6.36 6.31 5.91 5.47 4.99 4.59 4.06 3.58
0.03 0.02 0.03 0.02 0.02 0.02 0.02 0.06 0.21 0.34 0.38 0.37 0.27 0.52 1.08 1.40 1.41 1.41 1.40 1.48 1.45 1.27 1.30 1.51 1.77 1.74 1.99 2.28 2.66 3.10 3.48 3.87 4.38 4.91 5.39 5.63 5.76 5.65 5.16 4.69 4.26 3.83 3.33 2.94
0.10 0.07 0.04 0.02 0.03 0.04 0.03 0.08 0.27 0.44 0.49 0.51 0.47 0.83 1.27 1.29 1.19 1.14 1.13 1.18 1.32 1.35 1.39 1.48 1.61 1.68 1.94 2.15 2.40 2.79 3.13 3.50 3.74 3.97 4.33 4.57 4.70 4.56 4.22 3.73 3.25 2.93 2.65 2.36
0.16 0.14 0.06 0.03 0.03 0.04 0.05 0.08 0.16 0.20 0.27 0.50 0.85 1.15 1.51 1.44 1.31 1.22 1.10 1.11 1.23 1.21 1.22 1.32 1.46 1.58 1.76 2.05 2.40 2.67 2.80 3.00 3.21 3.41 3.47 3.46 3.55 3.45 3.19 2.88 2.57 2.28 2.01 1.77
0.14 0.20 0.09 0.04 0.03 0.05 0.06 0.08 0.12 0.21 0.47 0.71 0.98 1.46 1.81 1.91 1.80 1.67 1.37 1.26 1.19 1.23 1.22 1.23 1.32 1.46 1.55 1.64 1.98 2.30 2.36 2.48 2.58 2.67 2.71 2.64 2.66 2.54 2.47 2.30 2.06 1.79 1.63 1.46
0.16 0.22 0.14 0.07 0.08 0.09 0.09 0.10 0.14 0.22 0.33 0.68 1.08 1.66 1.87 2.16 2.23 2.08 1.74 1.58 1.52 1.46 1.36 1.31 1.32 1.32 1.41 1.52 1.66 1.91 2.11 2.14 2.18 2.32 2.30 2.17 2.21 2.19 2.15 2.02 1.86 1.72 1.65 1.53
0.18 0.24 0.22 0.15 0.12 0.10 0.10 0.14 0.22 0.40 0.43 0.49 0.94 1.84 2.14 2.27 2.22 1.97 1.79 1.67 1.58 1.49 1.33 1.28 1.22 1.15 1.21 1.37 1.49 1.61 1.81 1.89 1.91 1.99 2.06 2.11 2.11 2.04 1.93 1.75 1.62 1.49 1.36 1.24
0.14 0.29 0.53 0.54 0.42 0.22 0.15 0.15 0.21 0.29 0.41 0.56 1.01 2.04 2.53 2.44 2.28 2.00 1.84 1.77 1.73 1.64 1.45 1.34 1.23 1.14 1.17 1.29 1.36 1.44 1.59 1.79 1.82 1.76 1.76 1.86 1.85 1.74 1.63 1.52 1.45 1.36 1.21 1.14
0.12 0.28 0.65 1.11 0.85 0.48 0.28 0.20 0.24 0.38 0.61 0.73 0.99 1.48 1.81 1.92 2.00 2.01 2.10 2.13 1.95 1.73 1.52 1.33 1.27 1.21 1.22 1.29 1.30 1.36 1.47 1.63 1.73 1.73 1.75 1.73 1.68 1.61 1.58 1.42 1.24 1.14 1.06 1.09
0.17 0.35 0.38 0.42 0.42 0.42 0.42 0.35 0.32 0.42 0.53 0.82 1.12 1.45 1.76 1.83 1.86 1.91 2.03 1.96 1.73 1.57 1.41 1.27 1.25 1.33 1.30 1.27 1.26 1.28 1.42 1.49 1.69 1.75 1.68 1.64 1.59 1.56 1.56 1.48 1.32 1.15 1.03 0.98
0.20 0.35 0.37 0.43 0.37 0.45 0.44 0.43 0.45 0.53 0.63 0.86 1.19 1.61 1.82 1.82 1.79 1.85 1.95 1.90 1.72 1.45 1.30 1.23 1.23 1.31 1.27 1.23 1.19 1.15 1.25 1.31 1.45 1.59 1.57 1.49 1.45 1.50 1.47 1.43 1.30 1.19 1.08 1.02
0.29 0.45 0.61 0.63 0.41 0.62 0.90 0.68 0.69 0.79 0.82 1.01 1.39 1.59 1.63 1.71 1.72 1.78 1.89 1.96 1.83 1.58 1.48 1.49 1.52 1.51 1.40 1.28 1.21 1.22 1.29 1.34 1.40 1.46 1.40 1.40 1.39 1.35 1.33 1.20 1.11 1.13 1.13 1.02
0.30 0.49 0.63 0.63 0.77 1.25 1.14 0.63 0.71 0.85 0.88 0.92 1.05 1.18 1.34 1.45 1.51 1.66 1.85 2.00 1.95 1.83 1.78 1.80 1.75 1.61 1.47 1.35 1.31 1.30 1.28 1.35 1.43 1.40 1.33 1.26 1.27 1.22 1.17 1.14 1.09 1.07 1.04 0.95
0.19 0.42 0.67 0.85 1.17 1.37 1.10 0.66 0.64 0.95 1.12 0.89 0.89 0.91 0.95 0.98 1.16 1.53 1.68 1.78 1.82 1.82 1.77 1.68 1.61 1.53 1.44 1.33 1.28 1.23 1.22 1.22 1.23 1.20 1.15 1.07 1.08 1.13 1.15 1.13 1.13 1.07 0.97 0.90
0.20 0.34 0.72 0.96 1.31 1.61 1.33 0.63 0.45 0.80 1.48 1.03 0.88 0.93 0.97 1.09 1.34 1.42 1.34 1.35 1.39 1.42 1.44 1.46 1.45 1.38 1.30 1.22 1.13 1.08 1.12 1.12 1.08 1.06 1.06 0.96 0.97 1.03 1.09 1.10 1.08 0.96 0.86 0.82
0.51 0.58 0.78 0.98 1.28 1.46 0.83 0.48 0.63 1.34 1.71 1.14 0.96 0.99 1.11 1.25 1.25 1.03 0.96 1.02 1.10 1.21 1.26 1.27 1.38 1.40 1.24 1.04 0.97 1.01 1.01 1.01 0.90 0.88 0.94 0.96 0.96 0.97 0.96 0.97 0.98 0.91 0.80 0.77
0.65 0.82 0.92 1.07 1.46 1.59 0.71 0.55 0.97 1.18 0.93 0.87 0.90 0.93 0.95 0.91 0.78 0.76 0.79 0.81 0.84 1.00 1.13 1.13 1.25 1.20 1.02 0.90 0.92 0.98 0.95 0.86 0.81 0.88 0.98 0.99 0.96 0.86 0.85 0.95 0.98 0.89 0.79 0.74
0.53 0.69 0.91 1.12 1.35 1.06 0.58 0.57 0.64 0.62 0.68 0.69 0.70 0.66 0.62 0.63 0.61 0.60 0.69 0.75 0.79 0.88 0.98 0.99 1.04 1.02 0.96 0.92 0.97 1.00 0.94 0.82 0.85 0.93 0.98 0.98 0.92 0.89 0.88 0.90 0.90 0.84 0.77 0.70
0.46 0.35 0.47 0.70 0.73 0.54 0.46 0.42 0.40 0.44 0.53 0.55 0.58 0.63 0.55 0.58 0.60 0.60 0.64 0.72 0.81 0.86 0.87 0.87 0.93 0.94 0.91 0.86 0.86 0.86 0.78 0.76 0.86 0.94 0.91 0.91 0.94 0.94 0.86 0.79 0.74 0.72 0.68 0.63
0.44 0.42 0.54 0.65 0.53 0.46 0.44 0.38 0.33 0.35 0.39 0.43 0.51 0.60 0.60 0.59 0.66 0.65 0.66 0.72 0.78 0.84 0.84 0.86 0.92 0.93 0.83 0.78 0.74 0.72 0.73 0.78 0.87 0.88 0.81 0.80 0.85 0.84 0.80 0.69 0.60 0.56 0.49 0.41
0.34 0.44 0.62 0.65 0.50 0.53 0.47 0.34 0.31 0.38 0.42 0.42 0.48 0.59 0.56 0.56 0.64 0.71 0.72 0.70 0.70 0.75 0.78 0.81 0.81 0.81 0.77 0.68 0.65 0.67 0.69 0.69 0.77 0.78 0.72 0.68 0.72 0.72 0.67 0.61 0.54 0.46 0.34 0.29